User: anonymous   Login
Location: Bayshore Village Mobile Home Park
(26.6945°N, 81.8642°W)
Time: 18:13:59
(UTC+00:00)
Language:

IUS-17 SRM-1 - Orbit

View from above orbital plane
View from above orbital plane
View from above satellite
View from above satellite

Ground track
Ground track

The orbit data is extracted from the following two-line orbital elements,

1 20843U 90090C   21264.09744204  .00000428  00000-0  71849-3 0  9996
2 20843  28.1132 210.3112 6737565 185.7373 158.5586  2.94040283313769
Epoch (UTC): 21 September 2021 02:20:18
Eccentricity: 0.6737565
inclination: 28.1132°
perigee height: 336 km
apogee height: 28069 km
right ascension of ascending node: 210.3112°
argument of perigee: 185.7373°
revolutions per day: 2.94040283
mean anomaly at epoch: 158.5586°
orbit number at epoch: 31376

The dashed part of the orbit path shows where the satellite is in the earth's shadow,  

DLR